Погода в Мариинске

Погода в Мариинске : погода сейчас, прогноз погоды и архив. Всё, что Вы хотите узнать о погоде в Мариинске!

Хотите узнать прогноз погоды в Мариинске? Тогда Вам сюда: Погода в Мариинске

Поиск расширенной информации на нашем сайте:

Другие новости

Новости СМИ2

Главная страница сайта

Новости сайта

03.07.2017

Напоминаем, что на нашем специализированном сайте Метеоцентр.Азия вы можете получить высокодетализированные автоматические прогнозы погоды по пунктам России, СНГ и мира в авиационном формате (включающие направление и скорость ветра, видимость, явления погоды, количество и форму облачности, нижнюю и верхнюю границу облачности).


Погода в Мариинске - сегодня

Время (UTC), дата Ветер
(°,м/с) 
Видим.   Явления Облачность Т
(°С)
Тd
(°С)
f(%) Тe
(°С)
Pmin
(гПа)
dP
(гПа)
Po
(мм)
O2
(г/м3)
Тmin Tmax R s Состояние
почвы
00 15.06.18 240 (ЮЗ) 20000 м    10/10 600 м кучево-дожд. 
[Cb calv]
+12.2 +9 81 +11  1009.9  1.7  745  286  +12    0.4    влажная 
06 15.06.18 240 (ЮЗ) 20000 м    10/3 600 м кучево-дожд., верхняя 
[Cb calv|Ci sp]
+19.3 +10.7 57 +22  1009.7  745  278           
12 15.06.18 140 (ЮВ) 10 км  слаб. ливневой дождь{гроза}  9/9 600 м кучево-дожд. 
[Cb calv]
+16.9 +11.4 70 +21  1010.2  -0.1  745  281    +20.2     
15 15.06.18 140 (ЮВ) 20000 м  {ливн. осадки}  10/10 600 м кучево-дожд. 
[Cb calv]
+14.6 +11.9 84 +19  1010.7  0.3  745  283           
18 15.06.18 130 (ЮВ) 20000 м  {ливн. осадки}  10/10 600 м кучево-дожд. 
[Cb calv]
+13.6 +12 90 +18  1010.3  -0.4  745  284           
21 15.06.18 130 (ЮВ) 20000 м    8/8 600 м кучево-дожд. 
[Cb calv]
+12.9 +11.7 92 +17  1010  -0.3  745  284           
00 16.06.18 130 (ЮВ) 20000 м  {ливн. осадки}  8/4 600 м кучево-дожд., верхняя 
[Cb calv|Ci sp]
+13.9 +12.2 89 +18  1010.2  0.2  745  283  +12.6    0.7    влажная 
03 16.06.18 140 (ЮВ) 20000 м    10/5 600 м кучево-дожд., средняя, верхняя 
[Cb calv|Ac trans|Ci sp]
+17.3 +12.8 75 +23  1009.7  -0.3  745  280           
06 16.06.18 210 (ЮЗ) 20000 м    10/4 600 м кучево-дожд., средняя, верхняя 
[Cb calv|Ac trans|Ci sp]
+21.7 +12.7 57 +27  1009  -0.4  744  275           
09 16.06.18 130 (ЮВ) 20000 м  слаб. ливневой дождь  10/5 600 м кучево-дожд., верхняя 
[Cb calv|Ci sp]
+21.4 +11.9 55 +25  1009.2  0.2  744  276           
12 16.06.18 130 (ЮВ) 3{12}  10 км  гроза, ливневой дождь  10/8 600 м кучево-дожд., верхняя 
[Cb cap|Ci sp]
+16.7 +11.1 70 +20  1009.4  -0.1  744  281    +23.2  0.4     
15 16.06.18 130 (ЮВ) 20000 м  {гроза, ливн. осадки}  10/4 600 м кучево-дожд., средняя, верхняя 
[Cb calv|Ac trans|Ci sp]
+16.5 +12.3 76 +23  1010.1  0.7  745  281           
18 16.06.18 110 (В) 20000 м  {гроза, ливн. осадки}  10/5 600 м кучево-дожд., верхняя 
[Cb calv|Ci sp]
+14.3 +12.8 91 +20  1009.5  -0.8  744  282           
00 17.06.18 330 (СЗ) 20000 м  {гроза, ливн. осадки}  10/4 600 м кучево-дожд., средняя, верхняя 
[Cb calv|Ac trans|Ci sp]
+15.2 +14.4 95 +25  1009.9  -0.1  745  281  +13.6      влажная 
03 17.06.18 290 (З) 20000 м    10/5 600 м кучево-дожд., средняя, верхняя 
[Cb calv|Ac trans|Ci sp]
+19.1 +14.9 77 +30  1009.7  745  277           
06 17.06.18 270 (З) 20000 м    8/5 600 м кучево-дожд., верхняя 
[Cb calv|Ci fib]
+22.6 +14.8 61 +31  1009.7  0.2  745  274           
09 17.06.18 280 (З) 20000 м    8/8 600 м кучево-дожд., средняя 
[Cb calv|Ac lent]
+22.3 +11.6 51 +26  1009.7  745  275           
12 17.06.18 190 (Ю) 20000 м    8/0 верхняя 
[Ci fib]
+24.5 +11 43 +27  1008.5  -1  744  273    +25.1       
15 17.06.18 070 (В) 20000 м    8/0 средняя, верхняя 
[Ac lent|Ci fib]
+19.1 +13.5 70 +27  1008.1  -0.7  744  277           
18 17.06.18 090 (В) 20000 м    6/0 верхняя 
[Ci sp]
+16 +13.4 85 +23  1007.6  -0.7  743  280           
21 17.06.18 100 (В) 20000 м    6/0 верхняя 
[Ci sp]
+15.9 +13.5 86 +23  1007.1  -0.5  743  280           
00 18.06.18 080 (В) 20000 м    5/0 верхняя 
[Ci fib]
+18.6 +14.6 78 +28  1006.8  -0.1  743  277  +12.6        влажная 
03 18.06.18 100 (В) 20000 м    3/0 верхняя 
[Ci fib]
+24.9 +14.9 54 +34  1005.4  -1  742  271           
06 18.06.18 100 (В) 6-11{12}  20000 м    ясно 
+28.5 +9.9 31 +30  1003.6  -1.6  741  268           
12 18.06.18 100 (В) 3{11}  20000 м    8/0 верхняя 
[Ci fib]
+27.9 +12.4 38 +33  1000.9  -1  739  268    +29.8       
Время (UTC), дата Ветер
(°,м/с) 
Видим.   Явления Облачность Т
(°С)
Тd
(°С)
f(%) Тe
(°С)
Pmin
(гПа)
dP
(гПа)
Po
(мм)
O2
(г/м3)
Тmin Tmax R s Состояние
почвы

Для получения пояснительной информации подведите курсор к названию столбца.

ПОГОДА в Мариинске - архив

Всё, что Вы хотите узнать о погоде в Мариинске - удобно и подробно!

Выберите нужную дату (начиная с 1 января 2015* года) и нажмите кнопку "Найти".
Будут отображены архивные сводки погоды по пункту Мариинск, начиная с указанной даты.


Отображать данные в формате CSV (для использования в таблицах Excel)


Внимание! Наш архив погоды предназначен исключительно для личного некоммерческого использования в познавательных целях. Если Вам необходимы официальные справки о состоянии погоды (для производственных, юридических, коммерческих и т.п. целей), обращайтесь в органы Росгидромета.

*Примечание: данная дата относится к архиву по метеостанциям СССР (Россия, СНГ, Балтия).
Архив по метеостанциям Зарубежной Европы и Азии (кроме Китая) хранится 10 дней, по другим регионам земного шара (Китай, Африка, Америка, Австралия, Океания) - 1 день.

Мариинск - район местоположения метеостанции


Название, широта, долгота, высота метеостанции:
Мариинск 56.2°ш. 87.8°д. 140 м над ур. моря [Российская Федерация]

Дополнительная информация

В oтличие oт бoльшинства пoгoдных сайтoв мы публикуем пoдрoбную метеoинфoрмацию в детальнoм прoфессиoнальнoм фoрмате.

Характеристики температуры и влажнoсти вoздуха измеряются на высoте 2 м в тени вдали oт зданий и деревьев.
Скoрoсть ветра измеряется на высoте 10 м (на урoвне рoста челoвека скoрoсть ветра ниже в 1.5-2 раза). Если метеoстанция нахoдится в гoрoде или в лесу, тo скoрoсть ветра занижена на 2-4 м/с пo сравнению с oткрытым местoм. Скoрoсть ветра над акватoриями крупных рек и oзёр, а также на вершинах хoлмoв на 2-5 м/с выше, чем в oбычных услoвиях.
Атмoсфернoе давление в разных тoчках местнoсти мoжет значительнo oтличаться oт давления на метеoстанции, в зависимoсти oт услoвий рельефа (при пoдъёме на 10 м давление пoнижается примернo на 1 мм рт.ст.).